Juan Gualberto Gomez International Airport
MUVR : now visible

Airfield :











YOU CAN JOIN US ON...

 
LOGIN :

Register | Disclaimer

   EN    FR    IT 

 









Legend :    VFR   Marginal VFR   IFR   Intensive IFR   Very Intensive IFR
Visi :
Ceiling :
>= 8 km
>= 3000ft
5 to 8 km
1000 to 3000 ft
1500m to 5 km
500 to 1000 ft
800 to 1500m
200 to 500 ft
< 800m
< 200 ft
Symbols :   Thunderstorms  Fog  Heavy snow  Heavy precipitations  Wind > 20 kt






- Airport Elevation : 210 ft
- IATA code : VRA


MUVR - Juan Gualberto Gomez International

CURRENT METAR :
  • 301650Z 02006KT 350V050 9000 SCT020 31/24 Q1018

EXPIRED METARs :
  • 301550Z VRB02KT 9000 FEW030 31/23 Q1019
  • 301450Z VRB03KT 9000 FEW030 30/23 Q1018

TAF MUVR
Valid from the 30 at 18:00 until the 31 at 18:00 UTC


301700Z 3018/3118 05009KT 9000 SCT020
TEMPO 3018/3024 SCT018CB BKN020
BECMG 3101/3103 VRB03KT
MUFH FIR / North America



MET'MAP, your aeronautical weather chart ! - Copyright ORBIFLY December 2007 - Disclaimer

ORBIFLY MET'MAP TEAM :

Programming & Development : Alexandra Zaïnal
Concept & original design : Baudouin d'Aumeries
Assistance for programming : Marc-Olivier Méhu
Technical & hardware support : Manuel Goepfert

Contact : metmap@orbifly.com




SOURCES & CREDITS :

   NOAA       Earth
Advisory